Location: Newark
(44.1667°N, 8.2500°E)
Time: 18:59:44
(UTC+00:00)

Vanguard 1 - All Passes

Search period start: 15 December 2019 00:00
Search period end: 25 December 2019 00:00
Orbit: 651 x 3832 km, 34.3° (Epoch: 14 December)

Date Brightness Start Highest point End Pass type
(mag) Time Alt. Az. Time Alt. Az. Time Alt. Az.
15 Dec - 00:02:24 10° S 00:18:14 29° SE 00:35:53 10° E visible
15 Dec - 02:20:48 10° SW 02:42:01 54° SSE 03:02:03 10° E visible
15 Dec - 04:44:35 10° WSW 05:07:41 64° S 05:24:38 10° ESE visible
15 Dec - 07:11:32 10° W 07:31:46 49° SSW 07:44:30 10° SE daylight
15 Dec - 09:41:32 10° W 09:52:05 20° SW 09:59:45 10° S daylight
16 Dec - 00:21:39 10° SSW 00:38:45 36° SE 00:58:02 10° E visible
16 Dec - 02:41:27 10° SW 03:03:11 58° SSE 03:23:18 10° E visible
16 Dec - 05:05:56 10° W 05:28:57 63° S 05:45:31 10° ESE visible
16 Dec - 07:33:15 10° W 07:52:27 42° SSW 08:04:45 10° SSE daylight
16 Dec - 10:05:30 10° W 10:12:04 14° WSW 10:17:28 10° SSW daylight
16 Dec - 22:28:24 10° SSE 22:37:46 16° SE 22:48:24 10° E visible
17 Dec - 00:41:23 10° SSW 00:59:26 42° SE 01:19:50 10° E visible
17 Dec - 03:02:19 10° WSW 03:24:26 62° S 03:44:29 10° E visible
17 Dec - 05:27:21 10° W 05:50:08 60° SSW 06:06:18 10° ESE visible
17 Dec - 07:55:08 10° W 08:12:57 36° SW 08:24:43 10° SSE daylight
17 Dec - 22:45:40 10° S 22:57:54 22° SE 23:12:33 10° E visible
18 Dec - 01:01:28 10° SW 01:20:15 48° SSE 01:41:25 10° E visible
18 Dec - 03:23:20 10° WSW 03:45:45 64° S 04:05:37 10° E visible
18 Dec - 05:48:50 10° W 06:11:12 56° SSW 06:26:57 10° SE visible
18 Dec - 08:17:17 10° W 08:33:17 29° SW 08:44:19 10° S daylight
18 Dec - 23:04:15 10° S 23:18:08 28° SE 23:35:26 10° E visible
19 Dec - 01:21:50 10° SW 01:41:13 54° SSE 02:02:53 10° E visible
19 Dec - 03:44:29 10° WSW 04:07:06 65° S 04:26:40 10° ESE visible
19 Dec - 06:10:24 10° W 06:32:08 51° SSW 06:47:26 10° SE visible
19 Dec - 08:39:53 10° W 08:53:27 23° SW 09:03:23 10° S daylight
19 Dec - 23:23:31 10° SSW 23:38:31 35° SE 23:57:41 10° E visible
20 Dec - 01:42:27 10° SW 02:02:20 59° SSE 02:24:15 10° E visible
20 Dec - 04:05:43 10° W 04:28:25 64° S 04:47:38 10° ESE visible
20 Dec - 06:32:03 10° W 06:52:54 45° SSW 07:07:41 10° SSE daylight
20 Dec - 09:03:24 10° W 09:13:29 17° SW 09:21:30 10° SSW daylight
20 Dec - 21:31:17 10° SSE 21:38:22 14° ESE 21:46:38 10° E visible
20 Dec - 23:43:15 10° SSW 23:59:03 41° SE 00:19:36 10° E visible
21 Dec - 02:03:14 10° WSW 02:23:33 62° SSE 02:45:32 10° E visible
21 Dec - 04:27:03 10° W 04:49:41 61° SSW 05:08:29 10° ESE visible
21 Dec - 06:53:51 10° W 07:13:30 38° SW 07:27:40 10° SSE daylight
21 Dec - 09:30:04 10° WSW 09:33:25 11° WSW 09:36:31 10° SW daylight
21 Dec - 21:48:18 10° SSE 21:58:22 20° SE 22:11:12 10° E visible
22 Dec - 00:03:21 10° SW 00:19:46 48° SSE 00:41:18 10° E visible
22 Dec - 02:24:10 10° WSW 02:44:52 64° S 03:06:46 10° E visible
22 Dec - 04:48:26 10° W 05:10:50 57° SSW 05:29:11 10° SE visible
22 Dec - 07:15:54 10° W 07:33:55 32° SW 07:47:18 10° SSE daylight
22 Dec - 22:06:51 10° S 22:18:30 26° SE 22:34:15 10° E visible
23 Dec - 00:23:41 10° SW 00:40:39 53° SSE 01:02:51 10° E visible
23 Dec - 02:45:13 10° WSW 03:06:13 65° S 03:27:55 10° ESE visible
23 Dec - 05:09:53 10° W 05:31:51 52° SSW 05:49:42 10° SE visible
23 Dec - 07:38:23 10° W 07:54:11 25° SW 08:06:23 10° S daylight
23 Dec - 22:26:07 10° SSW 22:38:46 33° SE 22:56:38 10° E visible
24 Dec - 00:44:15 10° SW 01:01:40 58° SSE 01:24:20 10° E visible
24 Dec - 03:06:21 10° W 03:27:33 64° S 03:48:59 10° ESE visible
24 Dec - 05:31:26 10° W 05:52:43 46° SSW 06:10:00 10° SE visible
24 Dec - 08:01:40 10° W 08:14:19 19° SW 08:24:39 10° SSW daylight
24 Dec - 20:35:38 10° SE 20:39:29 11° ESE 20:43:48 10° ESE night (unlit)
24 Dec - 22:45:51 10° SSW 22:59:11 39° SE 23:18:38 10° E visible
